{"data":{"norad_id":48115,"intl_designator":"2021-027Z","name":"STARLINK-2452","alt_names":[],"object_type":"PAYLOAD","status":"ACTIVE","operator":null,"country":"US","launch_date":"2021-04-07","launch_site_code":"AFETR","launch_vehicle":null,"mission":null,"orbit_class":"UNKNOWN","rcs_meters":null,"size_class":null,"mass_kg":null,"dimensions":null,"purposes":["comms"],"wikipedia_slug":null,"has_3d_model":false,"image_url":null,"decayed_at":null,"tle_current":{"epoch":"2026-05-25T00:53:38.386176Z","epoch_age_seconds":68488,"freshness":"FRESH","line1":"1 48115U 21027Z   26145.03724984  .00000451  00000+0  26303-4 0  9993","line2":"2 48115  53.1587 159.8185 0001386  84.3157 275.8002 15.31698421284348","mean_motion":15.31698421,"eccentricity":0.0001386,"inclination_deg":53.1587,"raan_deg":159.8185,"arg_perigee_deg":84.3157,"mean_anomaly_deg":275.8002,"bstar":2.6303e-5,"rev_number":28434,"period_min":94.013284877572,"perigee_km":469.79544714261,"apogee_km":471.69395715045,"semimajor_km":6848.8817021465,"source":"CELESTRAK","updated_at":"2026-05-25T13:38:16.644827Z"}}}